This is the latest recevied weather packets stored in our database for station/object IZ1UQG-1. If no packets are shown the sender has not sent any weather packets the latest 10 day(s).
| Time | Temp. | Humidity | Pressure | Rain* | Wind** | Luminosity | Snow |
|---|---|---|---|---|---|---|---|
| 1777707242 | 17.78° C | 59% | 1026.3 hPa | 120.9 mm | - | - | - |
| 1777706942 | 17.22° C | 61% | 1026.3 hPa | 95.5 mm | - | - | - |
| 1777706642 | 16.67° C | 61% | 1026.4 hPa | 113.54 mm | - | - | - |
| 1777706342 | 16.67° C | 61% | 1026.4 hPa | 93.98 mm | - | - | - |
| 1777706042 | 16.67° C | 62% | 1026.5 hPa | 159.77 mm | - | - | - |
| 1777705742 | 16.67° C | 62% | 1026.7 hPa | 117.35 mm | - | - | - |
| 1777705442 | 16.11° C | 62% | 1026.7 hPa | 136.4 mm | - | - | - |
| 1777705142 | 16.11° C | 62% | 1026.6 hPa | 89.41 mm | - | - | - |
| 1777704842 | 16.11° C | 62% | 1026.8 hPa | 154.69 mm | - | - | - |
| 1777704542 | 16.11° C | 62% | 1026.9 hPa | 157.23 mm | - | - | - |
| 1777704242 | 15.56° C | 62% | 1027.1 hPa | 151.89 mm | - | - | - |
| 1777703942 | 15.56° C | 63% | 1027 hPa | 132.33 mm | - | - | - |
| 1777703642 | 15.56° C | 63% | 1027 hPa | 182.12 mm | - | - | - |
| 1777703342 | 15.56° C | 63% | 1027 hPa | 146.3 mm | - | - | - |
| 1777703042 | 15° C | 64% | 1027.1 hPa | 147.32 mm | - | - | - |
| 1777702742 | 14.44° C | 64% | 1027 hPa | 109.47 mm | - | - | - |
| 1777702442 | 14.44° C | 63% | 1027.1 hPa | 162.31 mm | - | - | - |
| 1777702142 | 13.89° C | 62% | 1027.1 hPa | 131.32 mm | - | - | - |
| 1777701842 | 13.89° C | 63% | 1027.1 hPa | 162.31 mm | - | - | - |
| 1777701542 | 13.89° C | 63% | 1027.2 hPa | 103.38 mm | - | - | - |
| 1777701242 | 13.33° C | 63% | 1027.2 hPa | 199.64 mm | - | - | - |
| 1777700942 | 13.33° C | 63% | 1027.3 hPa | 168.15 mm | - | - | - |
| 1777700642 | 13.33° C | 63% | 1027.3 hPa | 156.21 mm | - | - | - |
| 1777700342 | 12.78° C | 64% | 1027.4 hPa | 183.13 mm | - | - | - |
| 1777700042 | 12.78° C | 63% | 1027.4 hPa | 195.58 mm | - | - | - |
* Rain latest hour (hover to see other rain measurements)
** Current wind speed in m/s (hover to see current wind gust speed)